N11DL CYSE-KFHR

Flight info

Callsign N11DL
Flight time 0h 26m
Altitude 5500
Route DCT
Aircraft AEST/L-SDFGRY/S

Departure

Time 2026-04-16 19:25
Airport Squamish Airport (CYSE)

Arrival

Time 2026-04-16 19:52
Airport Friday Harbor Airport (KFHR)
Time Latitude Longitude Altitude Speed Heading
2026-04-16 19:17 49.78360 -123.16151 175 ft 0 kts 154°
2026-04-16 19:18 49.78357 -123.16106 179 ft 6 kts 88°
2026-04-16 19:19 49.78320 -123.16081 180 ft 11 kts 195°
2026-04-16 19:19 49.78279 -123.16086 178 ft 6 kts 184°
2026-04-16 19:19 49.78267 -123.16075 178 ft 3 kts 19°
2026-04-16 19:19 49.78274 -123.16077 178 ft 0 kts 329°
2026-04-16 19:22 49.78277 -123.16079 178 ft 4 kts 329°
2026-04-16 19:22 49.78242 -123.16144 175 ft 11 kts 211°
2026-04-16 19:23 49.78271 -123.16210 176 ft 15 kts 344°
2026-04-16 19:23 49.78402 -123.16265 174 ft 23 kts 345°
2026-04-16 19:23 49.78510 -123.16297 175 ft 11 kts 357°
2026-04-16 19:23 49.78528 -123.16320 174 ft 4 kts 193°
2026-04-16 19:24 49.78513 -123.16310 174 ft 0 kts 167°
2026-04-16 19:24 49.78330 -123.16233 175 ft 70 kts 165°
2026-04-16 19:24 49.77711 -123.15976 287 ft 101 kts 165°
2026-04-16 19:25 49.76989 -123.15681 680 ft 115 kts 166°
2026-04-16 19:25 49.76172 -123.15309 1072 ft 128 kts 163°
2026-04-16 19:25 49.75605 -123.15023 1377 ft 127 kts 167°
2026-04-16 19:25 49.74397 -123.14702 1733 ft 138 kts 172°
2026-04-16 19:26 49.73757 -123.14575 1918 ft 141 kts 182°
2026-04-16 19:26 49.72780 -123.14732 2248 ft 142 kts 188°
2026-04-16 19:26 49.71798 -123.14932 2580 ft 143 kts 188°
2026-04-16 19:26 49.70829 -123.15276 2904 ft 143 kts 199°
2026-04-16 19:27 49.69887 -123.15773 3240 ft 143 kts 199°
2026-04-16 19:27 49.68948 -123.16275 3567 ft 143 kts 199°
2026-04-16 19:27 49.68006 -123.16780 3881 ft 143 kts 199°
2026-04-16 19:27 49.67063 -123.17284 4172 ft 144 kts 199°
2026-04-16 19:28 49.66118 -123.17790 4454 ft 144 kts 199°
2026-04-16 19:28 49.65172 -123.18295 4731 ft 144 kts 199°
2026-04-16 19:28 49.64226 -123.18794 5007 ft 144 kts 199°
2026-04-16 19:28 49.63280 -123.19291 5280 ft 144 kts 199°
2026-04-16 19:29 49.62313 -123.19799 5469 ft 152 kts 199°
2026-04-16 19:29 49.61278 -123.20342 5550 ft 164 kts 200°
2026-04-16 19:29 49.60151 -123.20938 5520 ft 178 kts 200°
2026-04-16 19:29 49.58945 -123.21576 5498 ft 187 kts 200°
2026-04-16 19:30 49.57702 -123.22236 5503 ft 190 kts 200°
2026-04-16 19:30 49.56440 -123.22904 5501 ft 193 kts 200°
2026-04-16 19:30 49.55166 -123.23580 5512 ft 194 kts 200°
2026-04-16 19:30 49.53882 -123.24261 5514 ft 196 kts 200°
2026-04-16 19:31 49.52610 -123.24936 5509 ft 196 kts 200°
2026-04-16 19:31 49.51322 -123.25615 5508 ft 196 kts 198°
2026-04-16 19:31 49.49979 -123.25949 5512 ft 196 kts 186°
2026-04-16 19:31 49.48625 -123.26135 5520 ft 195 kts 186°
2026-04-16 19:32 49.47268 -123.26314 5522 ft 196 kts 186°
2026-04-16 19:32 49.45912 -123.26493 5521 ft 196 kts 186°
2026-04-16 19:32 49.44555 -123.26631 5509 ft 196 kts 177°
2026-04-16 19:32 49.43225 -123.26198 5510 ft 196 kts 165°
2026-04-16 19:33 49.41911 -123.25624 5517 ft 196 kts 165°
2026-04-16 19:33 49.40601 -123.25043 5525 ft 196 kts 165°
2026-04-16 19:33 49.39293 -123.24461 5531 ft 196 kts 165°
2026-04-16 19:33 49.37982 -123.23879 5531 ft 196 kts 165°
2026-04-16 19:34 49.36664 -123.23294 5529 ft 197 kts 165°
2026-04-16 19:34 49.35339 -123.22756 5529 ft 197 kts 167°
2026-04-16 19:34 49.34006 -123.22267 5528 ft 197 kts 166°
2026-04-16 19:34 49.32691 -123.21690 5532 ft 197 kts 170°
2026-04-16 19:35 49.31338 -123.21376 5526 ft 197 kts 173°
2026-04-16 19:35 49.29988 -123.21095 5527 ft 195 kts 173°
2026-04-16 19:35 49.28652 -123.20781 5536 ft 194 kts 172°
2026-04-16 19:35 49.27325 -123.20443 5539 ft 193 kts 172°
2026-04-16 19:36 49.26002 -123.20092 5537 ft 193 kts 171°
2026-04-16 19:36 49.24683 -123.19734 5536 ft 192 kts 171°
2026-04-16 19:36 49.23366 -123.19372 5539 ft 192 kts 171°
2026-04-16 19:36 49.22051 -123.19005 5538 ft 192 kts 171°
2026-04-16 19:37 49.20735 -123.18637 5537 ft 192 kts 171°
2026-04-16 19:37 49.19422 -123.18270 5537 ft 192 kts 171°
2026-04-16 19:37 49.18108 -123.17923 5538 ft 192 kts 172°
2026-04-16 19:37 49.16791 -123.17607 5538 ft 192 kts 172°
2026-04-16 19:38 49.15472 -123.17302 5538 ft 192 kts 173°
2026-04-16 19:38 49.14170 -123.17001 5537 ft 192 kts 173°
2026-04-16 19:38 49.12851 -123.16694 5540 ft 192 kts 172°
2026-04-16 19:38 49.11528 -123.16385 5539 ft 193 kts 172°
2026-04-16 19:39 49.10202 -123.16074 5538 ft 193 kts 172°
2026-04-16 19:39 49.08873 -123.15760 5539 ft 193 kts 172°
2026-04-16 19:39 49.07542 -123.15447 5538 ft 194 kts 172°
2026-04-16 19:39 49.06203 -123.15132 5498 ft 197 kts 172°
2026-04-16 19:40 49.04827 -123.14809 5357 ft 202 kts 172°
2026-04-16 19:40 49.03424 -123.14483 5234 ft 205 kts 172°
2026-04-16 19:40 49.01998 -123.14145 5052 ft 210 kts 172°
2026-04-16 19:40 49.00550 -123.13796 4909 ft 211 kts 172°
2026-04-16 19:41 48.99100 -123.13448 4770 ft 211 kts 172°
2026-04-16 19:41 48.97649 -123.13103 4632 ft 211 kts 172°
2026-04-16 19:41 48.96196 -123.12759 4498 ft 211 kts 172°
2026-04-16 19:41 48.94746 -123.12416 4366 ft 211 kts 172°
2026-04-16 19:42 48.93297 -123.12076 4230 ft 211 kts 172°
2026-04-16 19:42 48.91857 -123.11736 4055 ft 213 kts 172°
2026-04-16 19:42 48.90391 -123.11390 3902 ft 213 kts 172°
2026-04-16 19:42 48.88928 -123.11045 3757 ft 213 kts 172°
2026-04-16 19:43 48.87468 -123.10700 3612 ft 212 kts 172°
2026-04-16 19:43 48.86010 -123.10355 3471 ft 212 kts 172°
2026-04-16 19:43 48.84572 -123.10019 3470 ft 205 kts 172°
2026-04-16 19:43 48.83186 -123.09695 3513 ft 199 kts 172°
2026-04-16 19:44 48.81822 -123.09372 3496 ft 198 kts 172°
2026-04-16 19:44 48.80469 -123.09051 3501 ft 196 kts 172°
2026-04-16 19:44 48.79125 -123.08738 3505 ft 195 kts 172°
2026-04-16 19:44 48.77789 -123.08420 3503 ft 194 kts 172°
2026-04-16 19:45 48.76454 -123.08109 3502 ft 194 kts 172°
2026-04-16 19:45 48.75100 -123.07795 3351 ft 201 kts 172°
2026-04-16 19:45 48.73700 -123.07467 3167 ft 206 kts 172°
2026-04-16 19:45 48.72264 -123.07132 2957 ft 211 kts 172°
2026-04-16 19:46 48.70800 -123.06790 2739 ft 214 kts 172°
2026-04-16 19:46 48.69344 -123.06449 2536 ft 215 kts 172°
2026-04-16 19:46 48.67868 -123.06103 2352 ft 215 kts 172°
2026-04-16 19:46 48.66391 -123.05758 2156 ft 215 kts 172°
2026-04-16 19:47 48.64916 -123.05415 1977 ft 213 kts 172°
2026-04-16 19:47 48.63456 -123.05078 1803 ft 212 kts 172°
2026-04-16 19:47 48.62002 -123.04746 1631 ft 211 kts 171°
2026-04-16 19:47 48.60551 -123.04415 1458 ft 211 kts 171°
2026-04-16 19:48 48.59101 -123.04075 1288 ft 212 kts 168°
2026-04-16 19:48 48.57679 -123.03439 1120 ft 212 kts 160°
2026-04-16 19:48 48.56281 -123.02693 1051 ft 212 kts 160°
2026-04-16 19:48 48.54952 -123.01967 1078 ft 190 kts 160°
2026-04-16 19:49 48.53788 -123.01332 1086 ft 166 kts 159°
2026-04-16 19:49 48.52774 -123.00802 1089 ft 145 kts 159°
2026-04-16 19:49 48.51836 -123.00396 1082 ft 135 kts 172°
2026-04-16 19:49 48.50944 -123.00264 1086 ft 124 kts 175°
2026-04-16 19:50 48.50096 -123.00125 984 ft 124 kts 173°
2026-04-16 19:50 48.49253 -123.00226 847 ft 120 kts 206°
2026-04-16 19:50 48.48711 -123.01121 743 ft 118 kts 258°
2026-04-16 19:50 48.48951 -123.02195 645 ft 112 kts 330°
2026-04-16 19:51 48.49697 -123.02307 516 ft 110 kts
2026-04-16 19:51 48.50440 -123.02316 378 ft 106 kts 358°
2026-04-16 19:51 48.51180 -123.02368 219 ft 104 kts 358°
2026-04-16 19:51 48.51861 -123.02412 93 ft 90 kts 356°
2026-04-16 19:52 48.52334 -123.02449 109 ft 33 kts 357°
2026-04-16 19:52 48.52462 -123.02461 113 ft 16 kts 356°
2026-04-16 19:52 48.52594 -123.02469 115 ft 16 kts 356°
2026-04-16 19:52 48.52657 -123.02512 114 ft 9 kts 265°
2026-04-16 19:53 48.52639 -123.02596 115 ft 9 kts 184°
2026-04-16 19:53 48.52566 -123.02591 115 ft 9 kts 180°
2026-04-16 19:53 48.52547 -123.02641 115 ft 6 kts 341°
2026-04-16 19:53 48.52562 -123.02625 115 ft 4 kts 90°
2026-04-16 19:54 48.52562 -123.02618 115 ft 1 kts 90°
2026-04-16 19:54 48.52562 -123.02615 115 ft 0 kts 91°